Location: Trondheim
(63.4170°N, 10.4170°E)
Time: 07:35:30
(UTC+02:00)

ISS - Visible Passes

Search period start: 26 September 2018 00:00
Search period end: 06 October 2018 00:00
Orbit: 403 x 408 km, 51.6° (Epoch: 26 September)

Date Brightness Start Highest point End Pass type
(mag) Time Alt. Az. Time Alt. Az. Time Alt. Az.
29 Sep -1.4 20:50:46 10° SSW 20:51:48 11° S 20:52:07 11° S visible
30 Sep -1.3 19:59:33 10° S 20:00:11 10° S 20:00:48 10° SSE visible
01 Oct -1.3 20:42:53 10° SSW 20:43:58 11° S 20:44:47 10° S visible
02 Oct -1.3 19:51:13 10° SSW 19:52:18 11° S 19:53:25 10° SSE visible
03 Oct -1.1 20:35:40 10° SSW 20:36:04 10° SSW 20:36:27 10° S visible
04 Oct -1.2 19:43:24 10° SSW 19:44:24 11° S 19:45:23 10° SSE visible
